Weather History for KPHD - March, 2013

Change the Weather History Date:

Tuesday, March 5, 2013

  Actual Average Record
Temperature  
Mean Temperature 34 °F 36 °F  
Max Temperature 46 °F 46 °F 81 °F (1983)
Min Temperature 22 °F 25 °F 5 °F (1984)
Degree Days  
Heating Degree Days 31 29  
Month to date heating degree days 178 148  
Since 1 July heating degree days 4308 4355  
Cooling Degree Days 0 0  
Month to date cooling degree days 0 0  
Year to date cooling degree days 0 0  
Moisture  
Dew Point 18 °F    
Average Humidity 55    
Maximum Humidity 81    
Minimum Humidity 28    
Precipitation  
Precipitation 0.01 in 0.09 in - ()
Month to date precipitation 0.02 0.43  
Year to date precipitation 3.18 5.39  
Sea Level Pressure  
Sea Level Pressure 29.87 in    
Wind  
Wind Speed 6 mph (East)    
Max Wind Speed 24 mph    
Max Gust Speed 31 mph    
Visibility 9 miles    
Events Snow    
T = Trace of Precipitation, MM = Missing Value Source: NWS Daily Summary

Daily Weather History Graph

Daily Weather History Graph

Search for Another Location

Airport or City:

Trip Planner

Search our weather history database for the weather conditions in past years. The results will help you decide how hot, cold, wet, or windy it might be!

Date:

Astronomy

Mar. 05, 2013 Rise Set
Actual Time 6:52 AM EST 6:21 PM EST
Civil Twilight 6:25 AM EST 6:49 PM EST
Nautical Twilight 5:54 AM EST 7:20 PM EST
Astronomical Twilight 5:22 AM EST 7:52 PM EST
Moon 2:04 AM EST (3/5) 11:58 AM EST (3/5)
Length of Visible Light 12h 23m
Length of Day
11h 29m
Last Quarter, 41% of the Moon is Illuminated
Mar 5
Last Quarter
Mar 11
New
Mar 19
First Quarter
Mar 27
Full
Apr 3
Last Quarter

Hourly Weather History & Observations

Time (EST) Temp. Windchill Dew Point Humidity Pressure Visibility Wind Dir Wind Speed Gust Speed Precip Events Conditions
12:53 AM 27.0 °F - 21.0 °F 78% 30.12 in 10.0 mi Calm Calm - N/A   Clear
2:53 AM 24.1 °F - 19.0 °F 81% 30.11 in 10.0 mi Calm Calm - N/A   Clear
4:53 AM 23.0 °F - 17.1 °F 78% 30.09 in 10.0 mi Calm Calm - N/A   Clear
5:53 AM 25.0 °F - 19.0 °F 78% 30.08 in 10.0 mi Calm Calm - N/A   Mostly Cloudy
6:53 AM 26.1 °F - 17.1 °F 69% 30.08 in 10.0 mi Calm Calm - N/A   Overcast
8:53 AM 28.9 °F 21.9 °F 17.1 °F 61% 30.06 in 10.0 mi ESE 6.9 mph - N/A   Overcast
9:53 AM 32.0 °F 27.5 °F 17.1 °F 54% 30.06 in 10.0 mi East 4.6 mph - N/A   Clear
10:53 AM 34.0 °F - 18.0 °F 52% 30.03 in 10.0 mi Calm Calm - N/A   Overcast
11:53 AM 37.0 °F 31.0 °F 19.0 °F 48% 29.99 in 10.0 mi ESE 8.1 mph - N/A   Partly Cloudy
12:53 PM 39.0 °F 33.4 °F 17.1 °F 41% 29.95 in 10.0 mi ESE 8.1 mph - N/A   Overcast
1:53 PM 42.1 °F 37.1 °F 17.1 °F 37% 29.88 in 10.0 mi East 8.1 mph - N/A   Mostly Cloudy
2:53 PM 46.0 °F 41.9 °F 16.0 °F 30% 29.83 in 10.0 mi East 8.1 mph - N/A   Mostly Cloudy
3:53 PM 45.0 °F 41.8 °F 14.0 °F 29% 29.82 in 10.0 mi ENE 5.8 mph - N/A   Overcast
4:53 PM 45.0 °F 41.2 °F 15.1 °F 30% 29.79 in 10.0 mi East 6.9 mph - N/A   Overcast
5:53 PM 44.1 °F 38.1 °F 15.1 °F 31% 29.75 in 10.0 mi East 11.5 mph 17.3 mph N/A   Overcast
6:53 PM 43.0 °F 38.8 °F 12.0 °F 28% 29.74 in 10.0 mi ENE 6.9 mph - N/A   Overcast
7:53 PM 42.1 °F 35.2 °F 16.0 °F 35% 29.69 in 10.0 mi ENE 12.7 mph 20.7 mph N/A   Overcast
8:53 PM 41.0 °F 34.7 °F 16.0 °F 36% 29.65 in 10.0 mi ENE 10.4 mph 16.1 mph N/A   Overcast
9:53 PM 41.0 °F 35.8 °F 17.1 °F 38% 29.63 in 10.0 mi ENE 8.1 mph - N/A   Overcast
10:53 PM 42.1 °F 33.3 °F 18.0 °F 38% 29.63 in 10.0 mi ESE 19.6 mph 31.1 mph N/A   Overcast
11:45 PM 35.6 °F 27.5 °F 28.4 °F 75% 29.62 in 1.8 mi ESE 11.5 mph - 0.00 in Snow Light Snow
11:53 PM 35.1 °F 29.3 °F 28.9 °F 78% 29.64 in 1.8 mi East 6.9 mph - 0.00 in Snow Light Snow